Location: Bakhuizen
(52.8696°N, 5.4575°E)
Time: 07:34:04
(UTC+00:00)

Cosmos 2369 Rocket - Pass Details

Date: 11 May 2021
Orbit: 827 x 854 km, 71.0° (Epoch: 15 June)

Event Time Altitude Azimuth Distance (km) Brightness Sun altitude
Exits shadow 22:17:21 24° 132° (SE) 1,666 3.2 -17.1°
Maximum altitude 22:18:58 28° 104° (ESE) 1,533 3.3 -17.1°
Drops below altitude 10° 22:23:40 10° 48° (NE) 2,467 4.9 -17.4°
Sets 22:26:25 0° 37° (NE) 3,411 5.9 -17.5°
